Kimball, NE

5:01 AM MDT on September 26, 2016 (GMT -0600)
Kimball Municipal-Arraj

Weather History for KIBM - August, 2013

Change the Weather History Date:

Tuesday, August 27, 2013

  Actual Average (KSNY) Record (KSNY)
Temperature  
Mean Temperature 81 °F 71 °F  
Max Temperature 96 °F 87 °F 101 °F (2010)
Min Temperature 66 °F 56 °F 40 °F (1964)
Degree Days  
Heating Degree Days 0 0  
Month to date heating degree days 0  
Since 1 June heating degree days 62  
Since 1 July heating degree days 3  
Cooling Degree Days 16 7  
Month to date cooling degree days 239  
Year to date cooling degree days 717  
Since 1 June cooling degree days 695  
Growing Degree Days 31 (Base 50)    
Moisture  
Dew Point 52 °F    
Average Humidity 40    
Maximum Humidity 66    
Minimum Humidity 18    
Precipitation  
Precipitation 0.00 in 0.06 in 0.45 in (2006)
Month to date precipitation 1.99  
Year to date precipitation 14.89  
Sea Level Pressure  
Sea Level Pressure 30.11 in    
Wind  
Wind Speed 7 mph (NW)    
Max Wind Speed 15 mph    
Max Gust Speed 21 mph    
Visibility 10 miles    
Events Thunderstorm    
T = Trace of Precipitation, MM = Missing Value Source: NWS Daily Summary

Daily Weather History Graph

Daily Weather History Graph

Search for Another Location

Airport or City:

Trip Planner

Search our weather history database for the weather conditions in past years. The results will help you decide how hot, cold, wet, or windy it might be!

Date:

Astronomy

Aug. 27, 2013 Rise Set
Actual Time 7:16 AM CDT 8:34 PM CDT
Civil Twilight 6:47 AM CDT 9:03 PM CDT
Nautical Twilight 6:13 AM CDT 9:37 PM CDT
Astronomical Twilight 5:37 AM CDT 10:13 PM CDT
Moon No Moon Rise 2:20 PM CDT (8/27)
Length of Visible Light 14h 15m
Length of Day
13h 18m
Waning Gibbous, 57% of the Moon is Illuminated
Aug 27
Waning Gibbous
Aug 28
Last Quarter
Sep 5
New
Sep 12
First Quarter
Sep 19
Full

Hourly Weather History & Observations

Time (CDT) Temp. Heat Index Dew Point Humidity Pressure Visibility Wind Dir Wind Speed Gust Speed Precip Events Conditions
12:15 AM 72.0 °F - 54.1 °F 53% 30.11 in 10.0 mi NW 6.9 mph - N/A   Clear
12:35 AM 73.6 °F - 54.0 °F 50% 30.11 in 10.0 mi NW 5.8 mph - N/A   Clear
12:55 AM 73.4 °F - 54.5 °F 51% 30.12 in 10.0 mi NW 8.1 mph - N/A   Clear
1:15 AM 71.4 °F - 54.7 °F 55% 30.12 in 10.0 mi NW 5.8 mph - N/A   Clear
1:35 AM 73.0 °F - 54.5 °F 52% 30.12 in 10.0 mi NW 6.9 mph - N/A   Clear
1:55 AM 72.0 °F - 54.1 °F 53% 30.12 in 10.0 mi WNW 8.1 mph - N/A   Clear
2:15 AM 72.3 °F - 53.8 °F 52% 30.12 in 10.0 mi NW 8.1 mph - N/A   Clear
2:35 AM 72.3 °F - 53.4 °F 51% 30.11 in 10.0 mi WNW 9.2 mph - N/A   Clear
2:55 AM 71.4 °F - 53.1 °F 52% 30.11 in 10.0 mi WNW 6.9 mph - N/A   Clear
3:15 AM 70.7 °F - 53.2 °F 54% 30.12 in 10.0 mi West 9.2 mph - N/A   Clear
3:35 AM 69.6 °F - 53.6 °F 57% 30.12 in 10.0 mi WNW 6.9 mph - N/A   Clear
3:55 AM 70.2 °F - 53.8 °F 56% 30.12 in 10.0 mi WNW 8.1 mph - N/A   Clear
4:15 AM 68.9 °F - 54.5 °F 60% 30.11 in 10.0 mi NW 8.1 mph - N/A   Clear
4:35 AM 69.1 °F - 54.5 °F 60% 30.11 in 10.0 mi NW 8.1 mph - N/A   Clear
4:55 AM 68.5 °F - 54.7 °F 61% 30.11 in 10.0 mi NW 6.9 mph - N/A   Clear
5:15 AM 69.3 °F - 54.5 °F 59% 30.11 in 10.0 mi WNW 10.4 mph - N/A   Clear
5:35 AM 68.9 °F - 54.5 °F 60% 30.11 in 10.0 mi WNW 9.2 mph - N/A   Clear
5:55 AM 67.5 °F - 54.5 °F 63% 30.12 in 10.0 mi West 6.9 mph - N/A   Clear
6:15 AM 66.2 °F - 54.5 °F 66% 30.12 in 10.0 mi West 6.9 mph - N/A   Clear
6:35 AM 66.2 °F - 54.3 °F 65% 30.13 in 10.0 mi WNW 6.9 mph - N/A   Clear
6:55 AM 66.2 °F - 54.1 °F 65% 30.13 in 10.0 mi WNW 8.1 mph - N/A   Clear
7:15 AM 67.5 °F - 54.1 °F 62% 30.14 in 10.0 mi WNW 8.1 mph - N/A   Clear
7:35 AM 67.3 °F - 54.5 °F 63% 30.14 in 10.0 mi WNW 3.5 mph - N/A   Clear
7:55 AM 68.4 °F - 54.5 °F 61% 30.15 in 10.0 mi West 3.5 mph - N/A   Clear
8:15 AM 69.6 °F - 54.3 °F 58% 30.15 in 10.0 mi WNW 6.9 mph - N/A   Clear
8:35 AM 73.0 °F - 53.4 °F 50% 30.15 in 10.0 mi NW 6.9 mph - N/A   Clear
8:55 AM 75.2 °F - 52.7 °F 45% 30.16 in 10.0 mi NW 8.1 mph - N/A   Clear
9:15 AM 77.4 °F - 52.7 °F 42% 30.16 in 10.0 mi NNW 9.2 mph - N/A   Clear
9:35 AM 79.3 °F - 52.2 °F 39% 30.16 in 10.0 mi NNW 10.4 mph - N/A   Clear
9:55 AM 81.9 °F - 51.1 °F 34% 30.15 in 10.0 mi North 11.5 mph - N/A   Clear
10:15 AM 84.0 °F - 51.1 °F 32% 30.16 in 10.0 mi North 9.2 mph - N/A   Clear
10:35 AM 85.3 °F - 50.2 °F 30% 30.16 in 10.0 mi North 11.5 mph - N/A   Clear
10:55 AM 86.4 °F - 50.2 °F 29% 30.16 in 10.0 mi North 10.4 mph 18.4 mph N/A   Clear
11:15 AM 87.1 °F - 50.0 °F 28% 30.16 in 10.0 mi NNE 10.4 mph - N/A   Clear
11:35 AM 87.6 °F - 49.6 °F 27% 30.16 in 10.0 mi North 9.2 mph - N/A   Clear
11:55 AM 88.3 °F - 49.5 °F 26% 30.15 in 10.0 mi North 11.5 mph 16.1 mph N/A   Clear
12:15 PM 88.5 °F - 48.9 °F 25% 30.15 in 10.0 mi North 9.2 mph - N/A   Clear
12:35 PM 90.1 °F - 48.7 °F 24% 30.15 in 10.0 mi NNE 8.1 mph - N/A   Clear
12:55 PM 89.2 °F - 48.4 °F 24% 30.14 in 10.0 mi ENE 5.8 mph - N/A   Clear
1:15 PM 89.6 °F - 48.7 °F 24% 30.14 in 10.0 mi SSE 4.6 mph - N/A   Clear
1:35 PM 90.9 °F - 48.2 °F 23% 30.13 in 10.0 mi ESE 3.5 mph - N/A   Clear
1:55 PM 91.2 °F - 48.4 °F 23% 30.13 in 10.0 mi WNW 4.6 mph - N/A   Clear
2:15 PM 88.3 °F - 48.4 °F 25% 30.12 in 10.0 mi NW 3.5 mph - N/A   Clear
2:35 PM 88.5 °F - 48.6 °F 25% 30.12 in 10.0 mi West 5.8 mph - N/A   Clear
2:55 PM 91.8 °F - 48.2 °F 22% 30.11 in 10.0 mi West 3.5 mph - N/A   Clear
3:15 PM 92.1 °F - 47.7 °F 22% 30.10 in 10.0 mi WSW 3.5 mph - N/A   Scattered Clouds
3:35 PM 93.7 °F - 47.5 °F 20% 30.10 in 10.0 mi NE 8.1 mph - N/A   Scattered Clouds
3:55 PM 94.6 °F - 47.3 °F 20% 30.09 in 10.0 mi ENE 4.6 mph - N/A   Mostly Cloudy
4:15 PM 94.6 °F - 46.9 °F 19% 30.08 in 10.0 mi ENE 3.5 mph - N/A   Scattered Clouds
4:35 PM 95.2 °F - 46.6 °F 19% 30.08 in 10.0 mi South 11.5 mph - N/A   Clear
4:55 PM 94.8 °F - 46.0 °F 19% 30.07 in 10.0 mi South 3.5 mph - N/A   Clear
5:15 PM 96.1 °F - 46.0 °F 18% 30.07 in 10.0 mi ESE 6.9 mph - N/A   Scattered Clouds
5:35 PM 95.5 °F - 46.6 °F 19% 30.06 in 10.0 mi SE 11.5 mph - N/A   Mostly Cloudy
5:55 PM 95.5 °F - 46.2 °F 18% 30.06 in 10.0 mi SE 9.2 mph 16.1 mph N/A   Mostly Cloudy
6:15 PM 94.6 °F - 45.7 °F 19% 30.06 in 10.0 mi ESE 5.8 mph - N/A   Scattered Clouds
6:35 PM 95.0 °F - 46.4 °F 19% 30.06 in 10.0 mi SE 13.8 mph - N/A   Scattered Clouds
6:55 PM 92.5 °F - 46.8 °F 21% 30.06 in 10.0 mi SE 6.9 mph - N/A   Scattered Clouds
7:15 PM 91.4 °F - 46.6 °F 21% 30.05 in 10.0 mi SE 5.8 mph - N/A   Scattered Clouds
7:35 PM 90.5 °F - 46.4 °F 22% 30.04 in 10.0 mi ESE 9.2 mph - N/A   Clear
7:55 PM 88.9 °F - 46.8 °F 23% 30.05 in 10.0 mi SE 6.9 mph - N/A   Scattered Clouds
8:15 PM 86.5 °F - 50.2 °F 28% 30.07 in 10.0 mi NNW 15.0 mph 20.7 mph N/A   Scattered Clouds
8:35 PM 81.5 °F 80.8 °F 53.6 °F 38% 30.07 in 10.0 mi NW 9.2 mph 16.1 mph N/A Thunderstorm Mostly Cloudy
8:55 PM 79.3 °F - 55.6 °F 44% 30.08 in 10.0 mi NW 10.4 mph - N/A   Scattered Clouds
9:15 PM 76.8 °F - 56.3 °F 49% 30.08 in 10.0 mi Calm Calm - N/A   Scattered Clouds
9:35 PM 78.3 °F - 54.7 °F 44% 30.08 in 10.0 mi North 9.2 mph - N/A   Clear
9:55 PM 77.5 °F - 54.7 °F 45% 30.08 in 10.0 mi North 6.9 mph - N/A   Clear
10:15 PM 76.1 °F - 54.9 °F 48% 30.09 in 10.0 mi North 5.8 mph - N/A   Clear
10:35 PM 75.4 °F - 57.2 °F 53% 30.10 in 10.0 mi WNW 9.2 mph - N/A Thunderstorm Clear
10:55 PM 76.1 °F - 55.4 °F 49% 30.10 in 10.0 mi NNW 6.9 mph - N/A   Clear
11:15 PM 76.6 °F - 54.1 °F 46% 30.10 in 10.0 mi NNW 6.9 mph - N/A   Clear
11:35 PM 74.7 °F - 55.0 °F 50% 30.10 in 10.0 mi NNW 6.9 mph - N/A   Clear
11:55 PM 74.5 °F - 55.6 °F 52% 30.10 in 10.0 mi NNW 5.8 mph - N/A   Clear